Regional Weather Roundup
Issued by NWS Little Rock, AR

Home | Current Version | Previous Version | Text Only | Print | Product List | Glossary On
Versions: 1 2 3 4 5 6 7 8 9 10 11 12 13 14 15 16 17 18 19 20 21 22 23 24 25 26 27 28 29 30 31 32 33 34 35 36 37 38 39 40 41 42 43 44 45 46 47 48 49 50
000
ASUS44 KLZK 222205
RWRLZK

WEATHER ROUNDUP FOR ARKANSAS
NATIONAL WEATHER SERVICE LITTLE ROCK AR
500 PM CDT MON SEP 22 2014

NOTE: "FAIR" INDICATES FEW OR NO CLOUDS BELOW 12,000 FEET WITH NO
SIGNIFICANT WEATHER AND/OR OBSTRUCTIONS TO VISIBILITY.

ARZ001-003-010-029-222300-
NORTHWEST ARKANSAS

CITY           SKY/WX    TMP DP  RH WIND       PRES   REMARKS
FAYETTEVILLE   SUNNY     74  50  42 CALM      30.21F
FORT SMITH     SUNNY     77  52  41 E6        30.18F
HARRISON       SUNNY     73  51  46 NE5       30.23F
BENTONVILLE    SUNNY     73  50  43 NE6       30.23F
ROGERS         SUNNY     72  50  45 NE9       30.23F
SILOAM SPGS    SUNNY     73  52  46 E6        30.22F
HIGHFILL       SUNNY     73  50  44 E7        30.22F
SPRINGDALE     MOSUNNY   73  52  46 NE7       30.24F
$$

ARZ004-005-016-222300-
NORTH CENTRAL ARKANSAS

CITY           SKY/WX    TMP DP  RH WIND       PRES   REMARKS
BATESVILLE     SUNNY     79  48  34 N6        30.18F
FLIPPIN        SUNNY     75  48  38 E3        30.21F
MTN HOME       SUNNY     74  50  42 E7        30.21F
$$

ARZ040-041-222300-
WEST CENTRAL ARKANSAS

CITY           SKY/WX    TMP DP  RH WIND       PRES   REMARKS
MENA           SUNNY     77  52  41 E9        30.19S
MOUNT IDA      SUNNY     77  51  40 VRB3      30.16F
$$

ARZ009-017-025-026-028-222300-
NORTHEAST ARKANSAS

CITY           SKY/WX    TMP DP  RH WIND       PRES   REMARKS
CORNING          N/A     75  50  41 NE10      30.20S
JONESBORO      SUNNY     77  49  37 NE6       30.18F
NEWPORT        SUNNY     76  50  40 N13       30.19F
WALNUT RIDGE   SUNNY     73  46  38 NE6       30.19F
BLYTHEVILLE    SUNNY     76  49  38 NE9G20    30.18F
$$

ARZ022-023-033-042-044-222300-
CENTRAL ARKANSAS

CITY           SKY/WX    TMP DP  RH WIND       PRES   REMARKS
LITTLE ROCK    MOSUNNY   79  48  33 NE10      30.17F
N LITTLE ROCK  MOSUNNY   79  51  38 NE9G16    30.17F
JACKSONVILLE   SUNNY     80  50  35 NE8       30.17F
SEARCY         SUNNY     78  48  34 NE10      30.19F
HOT SPRINGS    SUNNY     78  50  37 E7        30.17F
RUSSELLVILLE   SUNNY     79  50  36 E5        30.18F
CLINTON        FAIR      77  54  44 E3        30.19F
$$

ARZ036-222300-
EAST ARKANSAS

CITY           SKY/WX    TMP DP  RH WIND       PRES   REMARKS
WEST MEMPHIS   SUNNY     76  52  43 NE15G21   30.15F
$$

ARZ050-053-066-070-073-222300-
SOUTHWEST ARKANSAS

CITY           SKY/WX    TMP DP  RH WIND       PRES   REMARKS
ARKADELPHIA    FAIR      79  55  43 VRB5      30.16F
CAMDEN         SUNNY     81  50  34 NE10G17   30.14S
TEXARKANA      SUNNY     79  51  37 NE10      30.14F
EL DORADO      SUNNY     80  53  39 NE12      30.13F
DE QUEEN       SUNNY     80  54  40 E9        30.13F
$$

ARZ056-057-069-222300-
SOUTHEAST ARKANSAS

CITY           SKY/WX    TMP DP  RH WIND       PRES   REMARKS
PINE BLUFF     SUNNY     79  50  36 N12       30.15F
STUTTGART      SUNNY     77  54  44 N13       30.17F
MONTICELLO     SUNNY     80  50  34 VRB7      30.13F

$$





USA.gov is the U.S. government's official web portal to all federal, state and local government web resources and services.